Theta_e
331 331 331 333 334 333 333 332 332 332 332 330 331 332 330 330 331 331 331 331 331 329 326 326 328 329 328 328 329 329 329 329 329 329 328 328 327 328 328 328 327 326 326 326 326 325 325 326 325 325 324 324 325 325 324 323 322 321 320 320 319 316 317
327 326 328 330 333 333 332 332 332 332 331 331 332 331 331 330 330 331 330 331 331 329 327 327 327 329 328 327 328 329 329 329 329 329 329 328 328 327 327 328 327 327 326 326 326 325 324 325 325 325 325 325 325 325 324 322 321 320 319 318 317 316 317
324 325 327 328 331 332 332 332 332 331 330 330 331 332 331 330 330 331 330 330 331 330 329 330 329 329 329 327 327 328 328 329 328 328 329 328 328 328 327 327 327 327 326 326 325 325 325 324 324 324 324 325 325 324 323 321 320 319 318 317 316 316 317
325 325 326 327 328 330 332 332 331 331 331 330 331 331 331 330 330 329 328 328 330 330 330 330 329 329 329 328 327 328 328 328 328 328 329 329 329 329 328 327 326 326 326 325 325 324 325 325 324 324 324 325 325 324 321 320 320 319 318 317 317 315 314
326 325 326 327 329 330 332 332 331 331 331 331 331 331 330 330 330 328 326 327 329 330 330 329 328 329 329 328 327 328 328 328 328 328 329 329 329 329 328 328 326 325 326 326 326 325 324 324 324 324 324 325 325 324 322 321 321 319 318 318 316 314 311
325 325 326 328 329 330 331 332 332 331 332 331 331 331 330 330 330 327 325 327 329 330 329 328 328 329 329 328 328 328 328 328 328 328 329 329 329 329 328 328 327 326 326 326 327 326 325 325 325 324 324 324 324 324 322 322 321 320 319 318 316 314 311
325 324 325 326 327 329 330 331 332 332 332 332 331 331 330 329 328 325 324 327 329 329 328 327 329 329 329 328 328 329 328 328 328 328 328 328 329 329 328 328 327 326 326 326 327 327 326 325 325 325 324 324 324 323 323 323 322 320 319 318 316 314 312
324 324 326 327 327 328 330 331 332 332 332 331 330 330 330 328 326 325 326 328 328 327 327 327 329 330 329 328 328 329 329 328 328 328 328 328 328 329 328 328 328 327 327 327 326 326 326 326 325 325 325 324 324 323 323 324 323 321 319 318 316 314 312
325 326 326 327 328 329 330 330 331 331 331 330 330 330 329 327 325 326 328 329 329 328 327 328 329 330 329 328 328 328 328 328 328 328 328 328 328 329 328 328 328 327 327 328 327 326 326 326 325 326 325 324 324 323 323 324 323 321 319 318 317 315 312
326 327 326 327 329 330 330 329 329 330 331 331 330 330 329 326 325 326 327 328 328 328 328 329 329 329 329 329 328 328 328 328 328 328 328 327 327 328 328 328 328 328 328 328 327 326 325 326 326 326 325 325 324 323 323 323 322 321 320 318 317 315 311
328 328 328 329 330 331 329 329 329 330 330 330 330 330 329 328 327 326 326 327 327 328 329 330 329 329 329 329 328 328 327 327 327 327 328 327 327 327 327 327 327 327 328 328 327 326 325 326 326 326 326 326 325 324 323 323 322 320 319 319 317 314 311
329 329 330 330 330 330 329 329 330 330 329 330 330 329 329 328 327 325 325 327 328 329 330 330 329 329 329 329 328 328 327 327 327 328 328 328 327 327 327 326 327 327 327 328 327 326 326 326 327 326 326 326 325 324 323 323 322 320 317 317 317 313 310
329 329 330 329 329 330 330 330 330 329 329 330 329 328 327 326 325 325 325 327 329 330 330 330 329 328 329 329 328 328 327 327 328 328 329 328 327 327 327 327 327 327 327 327 327 326 325 326 327 327 326 326 325 325 324 323 323 321 318 315 314 312 309
330 330 330 330 329 329 330 330 329 329 329 330 329 328 326 325 324 324 326 328 330 329 329 329 329 329 329 328 328 328 328 328 328 329 329 328 327 327 327 327 328 327 326 326 326 326 325 326 326 327 326 326 326 325 324 324 323 323 321 316 312 310 309
330 330 329 330 329 329 330 330 329 329 329 329 328 327 326 325 322 321 324 327 328 328 328 328 329 328 328 328 328 328 328 328 329 329 329 328 328 328 327 327 328 328 327 326 326 326 326 325 326 326 326 325 325 325 325 325 324 323 322 319 314 311 310
329 329 329 329 329 329 329 329 329 328 329 329 328 327 327 326 324 322 322 323 324 326 327 328 328 328 327 327 328 328 328 329 329 329 328 328 328 328 327 327 328 328 327 327 327 326 326 326 326 326 326 325 325 325 325 325 324 324 323 321 318 314 311
329 328 328 329 329 328 328 327 327 327 328 329 328 327 327 326 326 325 323 322 322 324 327 328 328 328 328 327 328 328 328 328 329 329 328 328 328 328 328 328 328 328 328 327 327 327 326 326 326 326 325 325 325 325 325 325 325 324 323 322 321 317 313
327 327 327 328 328 328 327 326 326 327 327 328 328 327 327 325 325 325 324 323 323 324 325 328 328 328 329 328 328 328 327 328 328 328 327 328 328 328 328 328 328 327 327 327 328 327 327 326 326 325 325 325 325 325 325 325 325 324 323 323 322 320 316
326 326 325 325 326 327 327 326 326 326 327 327 327 327 327 326 325 325 324 323 323 324 325 326 328 329 328 328 328 328 328 328 329 328 328 328 328 328 328 328 327 327 327 327 327 327 327 327 326 326 325 325 325 325 324 325 325 324 324 323 321 319 318
326 326 325 325 326 327 327 327 326 326 326 327 327 327 327 326 325 325 325 323 322 324 324 324 326 328 327 325 325 326 327 328 328 328 328 328 328 327 327 327 327 327 327 326 327 326 326 325 325 325 325 325 324 324 325 325 325 325 324 323 320 319 320
324 326 326 326 327 327 328 328 328 327 327 326 327 326 326 325 324 324 326 325 323 323 324 324 325 326 324 324 324 325 326 327 327 327 327 327 327 327 327 327 327 327 327 327 326 326 325 325 324 324 325 324 324 324 325 325 325 325 325 323 321 320 321
320 324 326 327 327 328 328 328 328 328 327 327 326 325 325 326 324 323 325 325 324 323 323 324 325 324 323 323 323 324 324 325 326 326 326 326 326 326 326 326 326 327 326 326 326 326 326 325 325 325 324 324 324 325 325 325 325 325 325 324 323 321 322
317 320 324 327 327 327 328 329 329 328 327 327 325 323 324 326 325 323 324 323 323 322 322 323 324 323 321 321 321 321 321 322 324 326 326 326 326 326 326 326 326 326 326 326 326 326 326 324 324 324 324 324 324 325 325 325 324 324 324 324 323 322 322
315 318 321 324 326 327 327 328 329 328 327 326 325 323 324 325 324 323 323 322 322 323 323 322 322 321 321 321 321 320 320 322 324 325 326 326 326 326 326 326 327 326 326 326 326 326 326 324 323 323 324 324 324 325 325 324 323 322 323 323 323 322 322
313 316 319 322 324 326 326 327 328 328 327 326 325 323 323 323 323 322 323 323 324 325 324 322 321 322 322 322 322 322 322 324 325 325 325 325 326 326 326 326 326 325 324 324 324 325 325 325 324 324 324 324 325 324 324 324 323 322 323 323 323 322 321
312 314 317 320 323 324 325 326 327 328 327 326 325 324 323 323 324 324 324 324 325 325 324 322 322 323 323 323 323 323 323 324 325 325 325 326 326 326 326 326 325 324 323 323 323 324 325 325 325 324 324 325 325 324 324 323 322 322 322 322 322 322 320
311 312 315 319 321 323 325 325 326 327 327 326 325 324 323 324 325 326 325 324 324 324 323 323 323 324 324 324 323 323 324 324 324 325 325 326 326 326 326 325 324 323 322 322 322 323 325 325 324 324 324 324 324 323 322 321 321 321 321 320 319 319 318
310 311 314 317 320 323 324 324 325 326 326 325 325 324 323 323 325 327 326 324 324 323 322 323 324 324 324 324 324 324 324 324 325 325 325 326 326 326 325 325 324 323 322 321 320 321 323 323 323 323 323 323 322 321 320 319 319 319 319 318 317 317 316
309 309 311 314 318 322 324 323 324 325 325 324 324 324 324 324 325 327 326 324 323 322 321 323 325 324 324 324 323 323 324 325 325 324 324 324 324 324 324 324 323 322 322 321 320 320 320 321 321 321 320 320 320 319 319 319 318 318 317 316 316 316 315
308 308 309 310 314 318 321 322 322 323 324 324 324 324 324 324 325 327 325 323 322 321 321 323 325 324 323 323 322 323 324 325 324 322 322 322 322 322 322 322 321 322 322 321 320 319 319 319 319 319 318 319 318 318 318 318 318 318 318 317 316 316 316
307 307 307 307 309 312 316 318 319 319 321 323 323 324 325 325 326 326 324 323 323 322 323 324 324 324 323 322 321 322 322 323 323 322 321 321 321 320 321 321 321 321 321 321 320 319 319 319 319 318 318 317 317 317 317 317 317 317 318 317 316 316 316
307 307 306 306 306 308 311 313 314 314 315 317 318 320 322 324 326 325 324 323 324 325 325 325 324 324 323 323 322 321 321 322 322 321 321 321 320 320 320 321 322 321 320 320 319 319 319 319 318 318 317 316 316 316 316 317 317 316 317 316 316 316 316
306 306 306 305 305 305 306 309 311 311 310 309 310 312 315 318 322 323 322 321 322 322 323 323 323 323 323 323 322 322 321 322 322 321 321 320 320 320 320 320 320 320 319 319 319 319 319 319 318 317 317 317 318 318 318 318 318 318 317 317 317 317 317
305 305 306 306 305 304 304 305 307 308 307 305 305 307 309 311 314 317 317 317 317 318 319 320 321 321 321 321 321 321 321 321 321 321 320 320 320 320 319 319 319 319 319 319 319 319 318 318 318 318 318 317 318 318 317 317 317 316 316 315 315 315 314
304 305 305 305 305 305 304 304 305 306 306 305 304 305 305 306 309 311 313 314 314 315 316 317 317 317 318 319 319 319 319 319 320 320 319 319 319 319 319 319 319 319 318 318 318 318 318 318 317 317 317 317 316 315 314 312 311 311 310 310 309 309 308
302 303 304 304 305 305 305 305 305 305 305 305 305 305 305 304 305 308 310 311 312 313 314 314 315 315 316 316 317 317 317 318 318 318 318 318 318 318 318 318 318 317 317 317 316 316 316 316 316 315 314 313 312 311 310 308 307 306 306 305 305 305 304
303 303 303 303 303 304 304 305 305 305 305 305 305 306 305 304 303 304 306 307 308 310 311 311 312 313 314 314 315 315 316 316 316 316 316 317 317 317 317 317 317 317 316 315 315 314 314 313 314 314 312 310 309 307 306 306 305 304 304 303 303 303 302
Wind_Speed
23 24 26 27 27 27 27 28 30 30 28 28 28 28 30 30 28 27 26 24 23 22 21 21 22 24 24 22 22 21 19 18 17 17 16 18 19 20 19 17 14 12 8 8 13 16 16 18 19 17 15 14 14 13 11 9 8 7 6 6 5 4 3
25 24 26 28 29 28 27 28 31 30 27 27 29 29 30 30 28 28 26 25 24 22 22 21 22 25 25 23 22 21 19 18 17 16 16 16 17 17 18 18 16 14 11 9 14 17 15 16 19 19 18 16 16 15 13 12 10 7 6 6 6 4 3
24 23 25 28 30 30 29 29 30 29 26 26 29 29 30 30 28 28 26 25 24 23 23 22 23 26 25 23 22 21 19 18 17 17 17 15 14 15 17 17 17 17 13 12 16 20 17 15 15 17 19 19 18 17 15 13 11 8 7 6 6 5 3
21 20 23 26 28 30 31 30 30 30 28 28 28 28 29 28 27 26 24 23 23 24 24 23 23 25 24 22 22 20 18 18 18 18 17 15 14 15 17 17 16 17 14 11 14 19 20 17 14 15 18 19 18 16 16 15 11 9 7 7 7 6 4
20 21 22 24 27 29 30 30 30 30 29 27 26 25 27 27 26 24 23 23 24 24 24 23 24 24 25 24 23 21 19 18 18 18 18 17 16 15 17 17 16 16 14 10 10 15 18 17 13 13 16 19 18 16 15 14 12 10 8 8 8 7 5
19 21 22 23 25 27 29 29 29 30 29 28 26 26 26 26 28 26 24 24 23 23 24 24 24 25 26 25 23 21 19 18 19 19 19 18 16 15 15 16 16 17 16 12 10 12 16 17 14 13 15 18 18 17 16 14 12 11 10 10 10 8 5
21 22 22 22 23 25 27 27 29 29 28 27 27 26 24 25 28 27 25 24 22 23 24 24 24 26 25 24 23 22 20 18 18 19 19 17 16 16 16 16 17 17 16 14 11 11 15 17 16 15 16 18 19 17 16 15 14 12 11 11 10 9 7
21 23 23 22 23 25 25 25 26 27 26 25 25 23 21 24 26 26 25 23 22 22 24 23 24 25 24 23 23 23 21 18 18 19 19 17 17 18 18 17 17 17 17 16 13 11 14 15 15 16 16 18 20 19 17 15 14 13 11 10 11 10 8
20 22 23 24 25 25 25 24 23 23 22 21 21 19 21 24 24 24 23 22 21 22 23 22 23 24 23 22 22 22 20 19 19 19 19 18 18 18 18 18 18 18 18 17 14 13 13 14 15 16 16 16 17 19 18 17 16 15 13 12 12 11 9
24 24 25 26 26 25 24 23 20 20 20 19 18 19 22 24 23 21 20 21 22 22 22 22 22 23 23 23 22 20 19 19 20 20 19 19 19 18 18 18 19 19 19 18 16 14 14 14 14 16 17 15 15 17 17 16 15 14 14 14 12 11 11
26 27 27 29 27 24 24 22 19 19 20 19 18 19 23 24 22 21 20 21 21 22 23 23 23 24 24 23 22 20 19 20 20 20 20 20 19 19 19 20 20 20 20 19 16 14 14 15 14 15 16 14 14 15 14 13 11 9 11 13 11 11 11
24 25 27 29 28 25 23 20 19 19 19 19 18 21 24 23 22 22 21 20 20 22 24 23 23 23 24 24 23 21 20 21 21 21 21 21 20 20 21 21 21 21 20 19 17 16 15 16 15 14 15 14 14 14 13 12 11 7 6 7 9 10 10
19 21 23 26 27 24 22 21 19 18 17 18 19 22 24 23 22 20 19 19 20 22 23 23 22 23 23 24 24 22 22 22 22 21 21 21 21 21 21 21 20 20 20 20 19 18 16 16 16 15 15 14 14 14 13 13 13 10 5 2 8 11 10
17 18 19 21 23 22 21 22 20 17 17 17 19 22 22 23 21 19 18 19 20 21 22 22 22 22 23 24 24 23 22 22 22 21 21 22 22 22 21 20 20 20 20 20 20 19 18 17 17 17 16 15 15 15 15 14 13 12 8 5 8 12 12
17 17 18 19 20 19 21 24 21 18 17 18 20 22 22 22 21 19 19 19 19 19 21 22 22 22 23 23 23 23 23 22 23 22 21 22 22 22 21 20 20 21 21 21 20 19 18 17 18 18 17 16 16 16 16 15 15 14 12 9 9 11 13
18 18 18 18 18 18 19 22 21 18 18 20 21 22 22 21 21 21 21 20 19 19 20 21 22 22 22 21 22 23 24 23 23 23 22 22 22 21 21 20 20 21 22 21 21 20 19 18 18 18 18 17 17 17 17 17 17 16 15 13 11 11 12
18 18 18 18 18 18 17 17 18 19 20 20 21 22 22 22 22 22 22 22 20 19 19 20 20 20 20 20 21 23 23 23 23 22 22 22 22 22 21 21 21 21 21 20 20 20 20 19 18 18 18 18 18 19 19 19 19 18 17 16 14 13 13
20 19 18 17 16 16 15 14 16 20 22 21 22 24 24 23 23 22 22 22 21 20 20 20 19 18 19 19 20 21 21 21 21 21 20 21 22 22 22 22 22 21 21 20 21 21 21 20 20 20 20 19 19 19 20 20 20 20 19 18 16 16 15
20 20 18 14 12 13 13 14 15 19 22 22 23 25 25 24 23 23 22 22 23 22 20 19 18 17 18 19 19 19 20 20 21 21 20 20 21 22 22 23 22 21 21 21 21 22 22 22 22 22 22 21 20 20 21 21 21 21 21 19 18 18 17
16 18 16 13 12 12 13 14 15 18 21 22 23 25 26 25 24 23 23 23 24 22 21 20 18 17 18 18 18 19 20 21 21 21 20 20 20 21 22 22 21 20 20 20 20 20 21 22 23 23 24 22 21 20 21 21 22 23 22 21 20 19 18
13 14 15 14 12 12 13 15 16 18 21 22 23 25 25 24 24 23 22 23 23 22 22 21 19 19 20 20 19 19 20 21 20 20 20 20 20 20 20 19 18 18 18 18 18 19 20 21 22 24 25 24 22 22 21 21 22 23 23 22 22 22 20
12 12 14 14 13 12 13 15 15 18 22 23 24 25 25 24 24 23 22 22 22 22 22 21 21 21 22 21 21 20 20 20 19 19 19 19 19 18 18 17 16 16 17 17 17 19 20 21 21 23 24 23 23 23 22 22 22 23 24 24 25 24 23
15 11 13 14 14 12 13 16 16 18 22 24 26 27 26 24 24 23 23 22 22 23 24 22 21 22 22 22 21 21 21 20 20 19 19 18 18 18 17 17 16 15 16 16 16 18 18 18 18 19 19 20 21 22 21 21 21 22 23 25 27 26 25
23 13 12 15 15 13 12 15 18 19 21 24 26 27 27 26 25 25 23 22 22 23 24 23 22 22 22 21 21 21 21 20 20 19 19 18 17 17 17 16 15 16 16 15 15 16 15 15 16 17 17 18 19 19 19 18 18 20 22 24 25 25 24
30 20 11 13 16 15 13 14 18 21 23 25 26 28 28 27 27 27 25 23 22 23 24 23 22 22 22 21 21 21 20 20 19 19 19 18 18 18 18 17 16 16 15 15 15 15 15 15 15 16 16 16 17 17 17 17 17 20 22 22 22 23 22
35 27 15 8 13 16 15 15 17 21 25 27 28 29 30 28 27 28 27 24 23 24 24 23 23 22 21 20 19 20 20 19 19 19 19 19 19 19 19 18 17 16 15 14 14 14 14 14 14 14 14 14 15 16 16 16 16 18 20 20 20 21 21
39 31 18 8 7 13 16 17 19 22 26 30 30 30 30 28 26 27 27 25 24 24 25 24 23 22 21 19 19 20 21 20 20 20 20 20 20 20 20 18 17 16 14 13 12 12 12 12 12 12 12 13 14 14 15 15 15 17 19 19 19 20 20
39 33 22 14 9 11 15 17 21 24 26 30 31 30 30 29 28 28 28 26 25 27 27 26 24 23 21 20 20 21 21 21 20 20 20 20 20 20 20 19 17 16 15 13 11 10 10 10 10 10 9 10 12 12 13 13 12 16 18 18 18 19 19
38 35 26 19 12 12 15 16 20 25 26 28 30 30 30 30 30 29 28 27 28 28 28 27 25 23 22 22 22 22 22 22 21 19 19 19 19 18 19 19 18 17 15 13 12 11 9 9 8 8 7 7 8 10 11 9 9 11 13 14 15 15 15
37 35 30 22 16 12 14 15 19 24 25 26 29 30 30 30 31 30 28 27 28 29 28 27 26 25 24 24 23 24 23 23 21 20 18 18 17 17 17 18 18 18 17 15 13 12 10 9 8 7 7 7 7 9 9 8 8 9 8 9 10 11 12
36 36 32 26 21 17 13 12 15 19 23 26 28 29 30 31 32 31 29 28 28 28 28 27 26 26 26 26 25 24 24 23 21 20 19 19 18 17 16 17 18 18 17 16 14 12 11 10 9 8 7 7 7 8 8 8 9 10 10 10 9 9 10
33 35 33 28 23 20 16 11 9 12 16 20 22 24 27 29 31 30 29 29 29 28 28 27 27 27 28 28 27 25 24 23 22 21 20 20 19 17 16 16 18 18 17 15 14 13 12 11 10 9 8 7 7 8 8 8 9 10 11 10 10 11 10
29 32 33 30 26 22 18 13 8 5 7 9 12 16 19 22 27 29 28 28 29 28 28 28 28 28 29 29 28 27 26 24 23 22 22 22 20 19 17 17 18 18 17 15 14 13 12 12 11 10 9 8 8 9 9 9 9 9 9 8 8 9 9
25 26 28 29 28 26 24 18 11 4 4 9 11 12 14 15 20 25 26 26 27 27 28 29 29 29 28 28 27 26 25 24 24 24 24 23 22 20 20 19 19 18 17 16 15 14 13 13 12 11 11 10 9 9 9 9 9 9 8 8 8 8 8
26 24 22 22 24 26 27 25 20 14 9 11 16 18 18 18 16 19 23 23 24 25 26 27 28 27 26 27 25 23 22 22 23 23 23 23 23 22 21 21 20 19 18 16 15 14 14 14 14 13 12 11 9 9 9 8 7 7 7 6 6 6 7
28 28 25 22 21 20 21 22 23 22 18 15 16 19 22 24 23 21 21 20 20 21 21 22 22 22 22 23 22 21 20 20 20 20 20 21 21 21 20 20 20 20 19 18 17 17 16 16 16 14 12 10 9 8 8 7 6 5 4 4 3 4 5
25 27 28 27 25 23 20 17 16 18 19 18 17 17 18 21 24 24 23 22 20 18 17 17 17 18 18 19 20 20 20 19 19 18 17 17 17 17 17 18 18 19 19 19 19 18 17 14 13 11 9 7 6 5 4 4 3 3 2 3 4 5 7
Wind_Direction
279 280 279 274 269 265 262 259 252 243 235 232 231 226 224 224 225 224 225 221 214 214 215 218 225 220 210 209 210 210 211 210 210 212 213 214 209 203 205 208 215 221 230 233 216 204 194 188 190 195 196 192 191 188 179 173 176 170 166 173 175 167 170
280 282 281 275 270 267 264 261 257 252 243 234 229 226 223 223 224 225 226 223 215 212 215 219 226 223 211 208 210 209 209 207 207 210 213 218 217 211 207 205 207 211 222 232 216 212 209 195 192 196 195 193 192 187 177 170 169 165 160 163 171 175 182
275 277 277 275 274 270 264 262 258 256 252 240 232 229 224 221 224 227 225 222 219 217 219 222 227 223 214 211 212 210 210 206 205 208 211 217 220 218 216 211 206 203 208 215 206 207 214 210 207 203 196 195 194 184 175 171 166 161 161 162 166 176 192
277 276 276 274 275 272 267 264 260 259 255 240 230 230 228 222 222 225 219 218 224 224 222 224 227 225 217 214 213 210 212 210 207 207 209 215 218 219 219 217 212 205 206 216 210 207 212 214 216 210 199 198 199 188 176 174 170 165 169 168 166 173 182
276 273 271 272 273 273 271 268 263 261 257 244 234 233 235 227 218 217 215 217 224 224 223 223 224 227 223 217 211 208 210 211 209 209 209 211 213 215 219 219 214 209 212 229 231 220 219 220 223 216 202 199 203 196 185 184 181 176 181 178 173 177 174
267 262 264 269 272 272 272 271 267 262 258 253 246 243 243 232 217 211 213 219 225 225 225 223 222 227 226 218 210 208 210 210 209 210 210 210 210 211 216 218 215 210 212 226 238 234 229 226 226 222 208 201 205 201 191 194 195 190 190 189 185 182 172
265 257 256 260 264 266 267 269 269 266 262 261 256 250 244 229 213 209 212 220 227 228 228 224 220 224 225 220 213 209 209 210 210 210 211 212 211 210 212 217 218 213 213 221 231 234 232 228 225 222 211 203 208 208 199 197 203 204 200 198 196 192 179
267 262 258 255 256 260 262 262 264 266 266 265 262 253 233 217 209 208 215 223 228 230 229 223 219 221 222 221 218 213 208 208 211 211 212 213 212 211 210 213 218 218 215 219 226 231 232 231 227 223 216 208 206 209 208 206 210 213 209 205 206 200 186
264 264 264 260 257 258 258 255 255 261 264 262 260 247 223 212 212 214 219 224 226 229 230 224 220 221 222 222 220 216 211 209 212 213 213 213 214 214 212 212 216 218 218 220 227 231 229 229 230 226 224 223 217 211 210 213 219 219 213 210 211 207 196
263 266 269 267 262 258 255 252 251 256 259 258 253 237 218 214 218 221 224 225 225 227 227 222 219 221 222 221 219 216 213 212 214 215 215 215 215 216 215 214 216 217 218 221 226 228 224 224 228 226 227 236 236 227 218 219 228 227 220 216 211 205 201
267 271 272 269 262 255 252 252 252 255 257 257 247 225 212 212 216 221 224 226 228 228 225 220 217 218 219 219 218 216 214 215 216 216 217 218 217 217 215 215 217 218 218 221 225 224 221 223 224 223 229 237 239 238 235 237 245 241 229 224 213 201 201
270 275 276 273 267 257 251 253 253 251 253 254 238 214 206 209 216 220 224 229 232 229 224 218 215 216 216 218 219 217 215 216 217 218 218 219 217 217 216 213 215 218 218 221 225 224 222 224 223 222 228 232 231 235 240 245 251 250 241 228 208 198 198
276 279 281 278 273 263 255 254 251 245 247 246 228 209 205 210 214 219 227 233 233 228 224 219 217 217 216 219 221 219 217 218 219 219 218 219 217 215 215 212 213 218 220 221 224 225 224 225 225 225 226 228 228 231 235 238 242 244 253 220 189 192 195
279 283 285 280 274 268 260 259 252 240 238 235 219 207 207 211 213 217 227 231 228 226 225 222 220 220 220 220 220 219 219 219 220 218 216 217 216 214 214 213 213 217 220 222 224 224 224 227 228 228 227 225 225 229 233 233 235 236 239 220 186 189 194
286 286 287 283 278 276 271 268 260 243 234 227 215 208 208 209 211 218 224 226 224 223 223 221 220 221 222 223 221 219 218 218 219 218 216 214 213 213 215 215 214 217 217 218 220 222 223 226 229 228 226 225 225 228 232 233 233 233 232 228 211 200 201
296 294 291 282 275 276 277 275 267 251 239 229 217 211 209 209 212 219 223 223 223 223 222 219 218 220 222 224 221 218 218 220 221 220 218 216 214 214 217 217 217 220 219 215 215 218 221 224 226 227 227 229 229 231 232 233 233 231 228 229 229 220 215
292 300 300 289 277 273 271 269 261 248 242 237 225 215 211 212 215 220 225 225 224 225 223 218 217 220 222 224 221 218 219 222 224 223 221 219 218 217 217 218 219 222 224 220 215 216 219 221 224 226 228 230 233 234 235 234 234 232 230 231 233 231 229
277 290 299 297 290 281 269 258 248 240 238 235 226 218 215 216 218 221 224 225 222 223 223 218 217 220 221 222 222 220 220 220 221 223 221 219 221 222 221 220 220 221 223 223 220 219 222 224 225 227 229 230 232 234 236 236 235 232 229 230 234 237 238
272 276 282 287 287 279 266 255 245 236 233 230 225 222 220 220 221 220 222 223 221 221 222 220 219 219 220 219 220 221 221 219 219 220 219 219 221 223 223 222 220 220 222 223 223 224 225 226 227 228 230 230 231 232 236 238 235 231 228 228 231 236 239
281 277 275 274 272 265 256 253 249 237 230 230 230 228 225 222 220 219 221 222 220 218 219 221 221 221 221 220 218 221 221 220 222 220 218 219 221 223 224 222 218 219 221 223 226 227 228 229 228 229 231 232 233 234 235 237 235 231 229 227 226 229 235
287 281 278 273 268 263 252 246 247 239 230 230 231 229 224 220 217 218 220 221 221 219 217 218 221 222 222 221 219 220 219 218 221 221 217 218 219 220 222 221 218 218 222 225 227 229 229 230 230 230 231 232 233 233 234 237 237 234 231 229 228 230 235
301 275 270 267 262 260 250 241 239 236 230 228 229 225 218 213 214 218 220 218 220 223 221 219 221 223 222 220 219 219 219 219 219 217 215 215 216 216 217 218 217 217 222 225 225 227 230 231 232 233 233 233 234 236 235 236 238 237 234 232 231 233 237
333 284 257 256 254 249 244 239 236 234 230 226 224 221 214 209 212 217 220 216 215 220 222 220 220 222 221 220 219 218 218 219 217 216 215 215 215 215 213 213 213 215 220 223 225 230 235 237 238 239 238 236 237 239 239 238 239 239 237 234 232 234 239
352 321 263 249 249 243 238 236 233 231 228 223 220 217 211 209 212 215 215 214 214 216 218 218 218 218 217 216 217 217 217 217 217 216 216 216 215 214 211 210 210 212 215 217 222 229 234 235 236 238 239 237 234 234 236 237 240 240 237 232 230 231 236
360 346 302 253 244 241 237 235 231 227 223 220 217 214 211 211 213 213 214 215 216 216 216 216 215 214 213 212 213 215 216 217 217 218 218 216 215 214 211 210 210 209 209 212 220 228 231 230 230 232 236 239 237 235 236 238 241 241 236 230 227 228 233
4 357 340 284 247 238 235 236 232 224 220 219 218 216 213 212 211 212 216 217 216 215 214 212 211 209 209 210 211 214 215 215 217 218 217 214 212 211 209 209 208 206 208 216 225 230 230 229 230 232 238 243 241 239 239 239 240 240 234 226 225 230 236
6 1 357 342 272 241 235 241 239 228 219 216 218 219 216 214 213 214 216 219 218 216 211 208 207 206 207 211 213 214 213 213 215 216 214 211 209 208 207 208 207 207 211 220 227 229 228 227 228 231 237 242 244 244 242 239 237 236 232 228 227 230 235
8 4 2 359 320 254 237 242 242 236 227 219 218 219 217 216 218 218 218 218 218 214 208 204 206 207 210 214 217 217 215 213 212 212 211 210 209 208 209 209 208 208 213 216 218 222 222 218 218 224 231 240 246 247 243 238 233 231 232 233 229 226 229
12 7 5 2 334 269 239 236 232 229 228 224 221 220 219 219 220 220 218 218 217 212 205 203 206 209 211 215 218 218 216 212 209 209 209 209 209 209 210 210 208 208 210 211 211 214 216 213 212 216 221 228 234 236 235 233 229 225 223 224 224 222 224
19 12 8 6 349 301 255 236 226 219 217 220 223 225 224 223 222 220 218 216 214 209 203 203 208 210 211 213 214 215 214 210 208 208 208 209 209 209 209 210 211 210 208 209 210 212 214 216 217 218 219 217 221 228 232 229 224 220 210 204 205 206 209
24 19 15 13 4 338 298 252 228 216 209 210 217 222 225 224 221 218 215 214 213 210 205 207 212 214 211 210 211 213 212 211 210 210 209 208 208 208 207 207 207 205 204 207 211 213 217 223 226 226 224 219 221 227 230 224 220 223 222 216 215 222 222
28 28 23 21 19 5 340 302 250 216 201 199 203 208 214 218 218 215 212 211 211 211 212 213 217 218 214 210 211 214 214 213 213 211 210 209 206 202 199 196 195 196 200 206 210 214 220 225 226 223 216 212 216 218 219 218 217 222 229 230 233 243 248
30 34 33 30 32 31 17 350 310 243 185 170 177 185 192 203 208 208 208 208 206 206 209 213 214 215 214 211 211 215 217 217 218 216 212 210 208 203 198 196 195 198 204 209 212 215 217 217 216 213 205 203 208 206 204 207 208 212 220 226 231 242 254
27 31 36 37 41 47 47 38 21 8 94 100 108 133 153 170 187 192 193 197 198 195 195 201 203 204 205 206 208 212 215 217 220 220 215 210 208 205 202 201 202 205 208 211 213 214 211 205 201 199 196 196 199 197 195 197 201 205 214 223 232 244 255
28 26 28 33 40 48 55 58 59 59 68 76 77 86 101 112 135 160 169 176 183 181 180 186 190 190 192 196 199 203 208 212 216 218 216 210 207 204 202 201 202 202 202 202 202 202 201 197 192 191 192 193 195 194 192 193 196 201 210 218 226 235 244
29 31 30 29 32 38 45 53 62 68 73 78 71 66 70 78 88 111 130 139 150 159 162 169 177 181 183 187 188 190 195 201 204 207 210 208 203 200 199 198 197 195 192 190 189 188 189 190 191 189 187 188 189 189 188 189 189 194 205 219 236 254 266
23 29 33 35 35 37 36 36 48 59 65 74 75 66 60 59 63 75 89 97 106 120 128 135 146 157 164 171 175 177 181 184 185 190 196 197 194 194 196 196 195 194 192 188 187 188 187 186 187 187 185 183 178 173 172 178 188 206 237 273 289 296 297